Trinity Center, CA

1:14 PM PST on February 21, 2018 (GMT -0800)
Trinity Center

Weather History for KO86 - December, 2013

Change the Weather History Date:

Wednesday, December 18, 2013

  Actual Average (KMHS) Record (KMHS)
Temperature  
Mean Temperature 35 °F -  
Max Temperature 42 °F 40 °F 65 °F (1958)
Min Temperature 28 °F 25 °F 6 °F (1928)
Degree Days  
Heating Degree Days 30    
Moisture  
Dew Point 31 °F    
Average Humidity 92    
Maximum Humidity 100    
Minimum Humidity 53    
Precipitation  
Precipitation 0.00 in - - ()
Sea Level Pressure  
Sea Level Pressure 29.97 in    
Wind  
Wind Speed 1 mph (NW)    
Max Wind Speed 10 mph    
Max Gust Speed 20 mph    
Visibility 6 miles    
Events      
Averages and records for this station are not official NWS values.
T = Trace of Precipitation, MM = Missing Value Source: NWS Daily Summary

Daily Weather History Graph

Daily Weather History Graph

Search for Another Location

Airport or City:

Trip Planner

Search our weather history database for the weather conditions in past years. The results will help you decide how hot, cold, wet, or windy it might be!

Date:

Astronomy

Dec. 18, 2013 Rise Set
Actual Time 7:30 AM PST 4:44 PM PST
Civil Twilight 6:59 AM PST 5:15 PM PST
Nautical Twilight 6:24 AM PST 5:50 PM PST
Astronomical Twilight 5:51 AM PST 6:23 PM PST
Moon 6:22 PM PST (12/18) 8:13 AM PST (12/18)
Length of Visible Light 10h 16m
Length of Day
9h 13m
Full, 98% of the Moon is Illuminated
Dec 18
Full
Dec 25
Last Quarter
Jan 1
New
Jan 7
First Quarter
Jan 15
Full

Hourly Weather History & Observations

Time (PST) Temp. Windchill Dew Point Humidity Pressure Visibility Wind Dir Wind Speed Gust Speed Precip Events Conditions
12:10 AM 28.4 °F 24.6 °F 28.4 °F 100% 30.15 in 10.0 mi West 3.5 mph - N/A   Overcast
12:30 AM 28.4 °F - 28.4 °F 100% 30.15 in 2.5 mi Calm Calm - N/A   Overcast
12:50 AM 28.4 °F 24.6 °F 28.4 °F 100% 30.14 in 6.0 mi West 3.5 mph - N/A   Overcast
1:10 AM 30.2 °F - 28.4 °F 93% 30.14 in 1.0 mi Calm Calm - N/A   Overcast
1:30 AM 30.2 °F - 28.4 °F 93% 30.14 in 1.0 mi Calm Calm - N/A   Overcast
1:50 AM 32.0 °F - 30.2 °F 93% 30.14 in 0.8 mi Calm Calm - N/A   Overcast
2:10 AM 30.2 °F - 28.4 °F 93% 30.14 in 0.5 mi Calm Calm - N/A   Overcast
2:30 AM 28.4 °F - 28.4 °F 100% 30.13 in 0.2 mi Calm Calm - N/A   Overcast
2:50 AM 28.4 °F - 28.4 °F 100% 30.13 in 1.2 mi Calm Calm - N/A   Overcast
3:10 AM 28.4 °F - 28.4 °F 100% 30.12 in 0.8 mi Calm Calm - N/A   Overcast
3:30 AM 28.4 °F - 28.4 °F 100% 30.11 in 1.0 mi Calm Calm - N/A   Overcast
3:50 AM 30.2 °F - 28.4 °F 93% 30.11 in 0.5 mi Calm Calm - N/A   Overcast
4:05 AM 30.2 °F - 28.4 °F 93% 30.10 in 1.0 mi Calm Calm - N/A   Overcast
4:30 AM 30.2 °F - 30.2 °F 100% 30.09 in 0.5 mi Calm Calm - N/A   Overcast
4:50 AM 30.2 °F - 28.4 °F 93% 30.09 in 0.2 mi Calm Calm - N/A   Overcast
5:10 AM 28.4 °F - 28.4 °F 100% 30.08 in 0.5 mi Calm Calm - N/A   Overcast
5:30 AM 28.4 °F - 28.4 °F 100% 30.08 in 0.5 mi Calm Calm - N/A   Overcast
5:50 AM 28.4 °F - 28.4 °F 100% 30.07 in 0.5 mi Calm Calm - N/A   Overcast
6:10 AM 28.4 °F - 28.4 °F 100% 30.07 in 0.5 mi Calm Calm - N/A   Overcast
6:30 AM 28.4 °F 24.6 °F 28.4 °F 100% 30.07 in 0.8 mi NNW 3.5 mph - N/A   Overcast
6:50 AM 28.4 °F - 28.4 °F 100% 30.07 in 0.5 mi Calm Calm - N/A   Overcast
7:10 AM 28.4 °F - 28.4 °F 100% 30.06 in 0.5 mi Calm Calm - N/A   Overcast
7:30 AM 28.4 °F - 28.4 °F 100% 30.07 in 0.2 mi Calm Calm - N/A   Overcast
7:50 AM 28.4 °F - 28.4 °F 100% 30.07 in 0.2 mi Calm Calm - N/A   Overcast
8:10 AM 28.4 °F - 28.4 °F 100% 30.07 in 0.2 mi Calm Calm - N/A   Overcast
8:30 AM 28.4 °F - 28.4 °F 100% 30.06 in 0.5 mi Calm Calm - N/A   Overcast
8:50 AM 28.4 °F - 28.4 °F 100% 30.07 in 0.2 mi Calm Calm - N/A   Overcast
9:10 AM 30.2 °F - 30.2 °F 100% 30.06 in 0.2 mi Calm Calm - N/A   Overcast
9:30 AM 30.2 °F - 30.2 °F 100% 30.06 in 0.2 mi Calm Calm - N/A   Overcast
9:50 AM 32.0 °F - 32.0 °F 100% 30.06 in 0.2 mi Calm Calm - N/A   Overcast
10:10 AM 32.0 °F - 32.0 °F 100% 30.05 in 0.2 mi Calm Calm - N/A   Overcast
10:30 AM 32.0 °F - 32.0 °F 100% 30.03 in 0.2 mi Calm Calm - N/A   Overcast
10:50 AM 32.0 °F - 32.0 °F 100% 30.02 in 0.8 mi Calm Calm - N/A   Overcast
11:10 AM 33.8 °F - 33.8 °F 100% 30.01 in 8.0 mi Calm Calm - N/A   Overcast
11:30 AM 35.6 °F - 35.6 °F 100% 30.00 in 10.0 mi Calm Calm - N/A   Mostly Cloudy
11:50 AM 37.4 °F - 35.6 °F 93% 29.98 in 10.0 mi Calm Calm - N/A   Partly Cloudy
12:10 PM 39.2 °F - 33.8 °F 81% 29.97 in 10.0 mi Calm Calm - N/A   Clear
12:30 PM 39.2 °F - 35.6 °F 87% 29.95 in 10.0 mi Calm Calm - N/A   Clear
12:50 PM 39.2 °F - 35.6 °F 87% 29.94 in 10.0 mi Calm Calm - N/A   Clear
1:10 PM 41.0 °F - 35.6 °F 81% 29.92 in 10.0 mi Calm Calm - N/A   Clear
1:30 PM 41.0 °F - 35.6 °F 81% 29.91 in 10.0 mi Calm Calm - N/A   Clear
1:50 PM 41.0 °F - 35.6 °F 81% 29.90 in 10.0 mi Calm Calm - N/A   Clear
2:10 PM 42.8 °F - 35.6 °F 76% 29.89 in 10.0 mi Calm Calm - N/A   Clear
2:30 PM 42.8 °F - 35.6 °F 76% 29.89 in 10.0 mi Calm Calm - N/A   Clear
2:50 PM 42.8 °F - 35.6 °F 76% 29.89 in 10.0 mi Calm Calm - N/A   Clear
3:10 PM 41.0 °F - 35.6 °F 81% 29.89 in 10.0 mi Calm Calm - N/A   Clear
3:30 PM 41.0 °F - 35.6 °F 81% 29.88 in 10.0 mi Calm Calm - N/A   Partly Cloudy
3:50 PM 39.2 °F - 35.6 °F 87% 29.88 in 10.0 mi Calm Calm - N/A   Partly Cloudy
4:10 PM 39.2 °F - 35.6 °F 87% 29.87 in 5.0 mi Calm Calm - N/A   Clear
4:30 PM 37.4 °F - 35.6 °F 93% 29.86 in 5.0 mi Calm Calm - N/A   Clear
4:50 PM 37.4 °F - 35.6 °F 93% 29.85 in 9.0 mi Calm Calm - N/A   Clear
5:10 PM 35.6 °F - 32.0 °F 87% 29.85 in 10.0 mi Calm Calm - N/A   Clear
5:30 PM 35.6 °F - 32.0 °F 87% 29.84 in 10.0 mi Calm Calm - N/A   Clear
5:50 PM 33.8 °F 30.8 °F 32.0 °F 93% 29.84 in 10.0 mi West 3.5 mph - N/A   Clear
6:10 PM 32.0 °F 28.7 °F 32.0 °F 100% 29.83 in 10.0 mi West 3.5 mph - N/A   Clear
6:30 PM 32.0 °F - 32.0 °F 100% 29.83 in 10.0 mi Calm Calm - N/A   Clear
6:50 PM 32.0 °F 27.5 °F 32.0 °F 100% 29.83 in 9.0 mi West 4.6 mph - N/A   Clear
7:10 PM 32.0 °F - 32.0 °F 100% 29.83 in 7.0 mi Calm Calm - N/A   Clear
7:30 PM 32.0 °F - 30.2 °F 93% 29.83 in 8.0 mi Calm Calm - N/A   Clear
7:50 PM 32.0 °F - 30.2 °F 93% 29.84 in 10.0 mi Calm Calm - N/A   Clear
8:10 PM 32.0 °F 28.7 °F 30.2 °F 93% 29.84 in 5.0 mi West 3.5 mph - N/A   Clear
8:30 PM 30.2 °F - 28.4 °F 93% 29.84 in 7.0 mi Calm Calm - N/A   Clear
8:50 PM 30.2 °F - 28.4 °F 93% 29.85 in 9.0 mi Calm Calm - N/A   Partly Cloudy
9:10 PM 32.0 °F - 32.0 °F 100% 29.85 in 10.0 mi Calm Calm - N/A   Scattered Clouds
9:30 PM 32.0 °F - 30.2 °F 93% 29.85 in 10.0 mi Calm Calm - N/A   Scattered Clouds
9:50 PM 32.0 °F - 32.0 °F 100% 29.84 in 10.0 mi Calm Calm - N/A   Mostly Cloudy
10:10 PM 32.0 °F 27.5 °F 32.0 °F 100% 29.84 in 9.0 mi NNW 4.6 mph - N/A   Overcast
10:30 PM 35.6 °F 31.7 °F 32.0 °F 87% 29.84 in 10.0 mi NNW 4.6 mph - N/A   Overcast
10:50 PM 41.0 °F 35.2 °F 28.4 °F 61% 29.84 in 10.0 mi NNW 9.2 mph 18.4 mph N/A   Scattered Clouds
11:10 PM 41.0 °F 34.7 °F 26.6 °F 57% 29.84 in 10.0 mi North 10.4 mph - N/A   Partly Cloudy
11:30 PM 42.8 °F 39.3 °F 26.6 °F 53% 29.84 in 10.0 mi NNE 5.8 mph 19.6 mph N/A   Scattered Clouds
11:50 PM 41.0 °F 37.1 °F 26.6 °F 57% 29.83 in 10.0 mi North 5.8 mph - N/A   Partly Cloudy